| time (UTC) | temp F | wind direction | speed MPH | gust MPH | rain 1hr in | rain 24hr in | rain mn in | humidity % | barometer mb |
| 20260506013606 | 52 | 289 | 0.0 | 2.0 | 0.00 | 0.00 | 0.00 | 89 | 1014.3 |
| 20260506013254 | 52 | 289 | 0.0 | 2.0 | 0.00 | 0.00 | 0.00 | 89 | 1014.3 |
| 20260506012604 | 52 | 289 | 0.0 | 2.0 | 0.00 | 0.00 | 0.00 | 88 | 1014.3 |
| 20260506011606 | 52 | 289 | 0.0 | 2.0 | 0.00 | 0.00 | 0.00 | 88 | 1014.2 |
| 20260506010253 | 52 | 289 | 0.0 | 2.0 | 0.00 | 0.00 | 0.00 | 88 | 1014.3 |
| 20260506005603 | 52 | 289 | 0.0 | 2.0 | 0.00 | 0.00 | 0.00 | 88 | 1014.2 |
| 20260506005248 | 52 | 289 | 0.0 | 3.0 | 0.00 | 0.00 | 0.00 | 89 | 1014.3 |
| 20260506003600 | 53 | 289 | 1.0 | 4.0 | 0.00 | 0.00 | 0.00 | 89 | 1014.3 |
| 20260506003248 | 53 | 288 | 1.0 | 4.0 | 0.00 | 0.00 | 0.00 | 88 | 1014.3 |
| 20260506002559 | 53 | 286 | 1.0 | 3.0 | 0.00 | 0.00 | 0.00 | 88 | 1014.4 |
| 20260506002244 | 53 | 302 | 1.0 | 3.0 | 0.00 | 0.00 | 0.00 | 88 | 1014.4 |
| 20260506001243 | 53 | 250 | 2.0 | 4.0 | 0.00 | 0.00 | 0.00 | 88 | 1014.4 |
| 20260506000242 | 53 | 257 | 2.0 | 6.0 | 0.00 | 0.00 | 0.00 | 88 | 1014.4 |
| 20260505235241 | 53 | 283 | 2.0 | 4.0 | 0.00 | 0.00 | 0.00 | 88 | 1014.5 |
| 20260505234539 | 53 | 296 | 1.0 | 4.0 | 0.00 | 0.00 | 0.00 | 88 | 1014.5 |
| 20260505234236 | 53 | 296 | 2.0 | 5.0 | 0.00 | 0.00 | 0.00 | 88 | 1014.5 |
| 20260505233539 | 53 | 296 | 2.0 | 5.0 | 0.00 | 0.00 | 0.00 | 88 | 1014.5 |
| 20260505233234 | 53 | 296 | 2.0 | 5.0 | 0.00 | 0.00 | 0.00 | 88 | 1014.5 |
| 20260505232539 | 53 | 355 | 2.0 | 6.0 | 0.00 | 0.00 | 0.00 | 88 | 1014.6 |
| 20260505231534 | 53 | 288 | 2.0 | 6.0 | 0.00 | 0.00 | 0.00 | 88 | 1014.7 |
| 20260505231231 | 53 | 284 | 2.0 | 5.0 | 0.00 | 0.00 | 0.00 | 88 | 1014.7 |
| 20260505230533 | 53 | 285 | 2.0 | 5.0 | 0.00 | 0.00 | 0.00 | 88 | 1014.7 |
| 20260505230226 | 53 | 327 | 2.0 | 5.0 | 0.00 | 0.00 | 0.00 | 88 | 1014.7 |
| 20260505225532 | 53 | 271 | 1.0 | 4.0 | 0.00 | 0.00 | 0.00 | 88 | 1014.8 |
| 20260505224520 | 53 | 304 | 2.0 | 7.0 | 0.00 | 0.00 | 0.00 | 88 | 1014.8 |
| 20260505224232 | 53 | 305 | 2.0 | 7.0 | 0.00 | 0.00 | 0.00 | 88 | 1014.8 |
| 20260505223517 | 53 | 294 | 2.0 | 5.0 | 0.00 | 0.00 | 0.00 | 88 | 1014.8 |
| 20260505223223 | 53 | 309 | 2.0 | 6.0 | 0.00 | 0.00 | 0.00 | 88 | 1014.8 |
| 20260505222510 | 53 | 277 | 2.0 | 6.0 | 0.00 | 0.00 | 0.00 | 88 | 1014.9 |
| 20260505222222 | 53 | 317 | 2.0 | 5.0 | 0.00 | 0.00 | 0.00 | 88 | 1014.9 |
| 20260505221220 | 53 | 273 | 2.0 | 6.0 | 0.00 | 0.00 | 0.00 | 87 | 1014.9 |
| 20260505220508 | 53 | 330 | 1.0 | 5.0 | 0.00 | 0.00 | 0.00 | 87 | 1014.8 |
| 20260505220218 | 53 | 265 | 1.0 | 3.0 | 0.00 | 0.00 | 0.00 | 87 | 1014.9 |
| 20260505215215 | 53 | 286 | 1.0 | 4.0 | 0.00 | 0.00 | 0.00 | 87 | 1015.0 |
| 20260505214501 | 53 | 288 | 1.0 | 4.0 | 0.00 | 0.00 | 0.00 | 87 | 1015.0 |
| 20260505214215 | 53 | 288 | 1.0 | 4.0 | 0.00 | 0.00 | 0.00 | 87 | 1015.0 |
| 20260505213500 | 53 | 275 | 1.0 | 4.0 | 0.00 | 0.00 | 0.00 | 87 | 1015.0 |
| 20260505213214 | 53 | 271 | 2.0 | 6.0 | 0.00 | 0.00 | 0.00 | 87 | 1015.0 |
| 20260505212502 | 53 | 297 | 3.0 | 8.0 | 0.00 | 0.00 | 0.00 | 87 | 1015.1 |
| 20260505212213 | 53 | 332 | 4.0 | 8.0 | 0.00 | 0.00 | 0.00 | 87 | 1015.1 |
| 20260505210457 | 53 | 309 | 3.0 | 8.0 | 0.00 | 0.00 | 0.00 | 86 | 1015.3 |
| 20260505205455 | 53 | 290 | 6.0 | 11.0 | 0.00 | 0.00 | 0.00 | 86 | 1015.3 |
| 20260505205207 | 53 | 314 | 6.0 | 11.0 | 0.00 | 0.00 | 0.00 | 86 | 1015.3 |
| 20260505204456 | 53 | 297 | 5.0 | 10.0 | 0.00 | 0.00 | 0.00 | 86 | 1015.3 |
| 20260505204200 | 53 | 324 | 4.0 | 10.0 | 0.00 | 0.00 | 0.00 | 86 | 1015.3 |
| 20260505203453 | 53 | 339 | 4.0 | 9.0 | 0.00 | 0.00 | 0.00 | 85 | 1015.3 |
| 20260505203158 | 53 | 293 | 5.0 | 10.0 | 0.00 | 0.00 | 0.00 | 86 | 1015.3 |
| 20260505202455 | 53 | 290 | 6.0 | 11.0 | 0.00 | 0.00 | 0.00 | 85 | 1015.3 |
| 20260505201455 | 53 | 294 | 3.0 | 10.0 | 0.00 | 0.00 | 0.00 | 85 | 1015.2 |
| 20260505200446 | 53 | 269 | 2.0 | 8.0 | 0.00 | 0.00 | 0.00 | 85 | 1015.2 |
| 20260505200151 | 52 | 334 | 3.0 | 8.0 | 0.00 | 0.00 | 0.00 | 85 | 1015.1 |
| 20260505195446 | 52 | 327 | 3.0 | 8.0 | 0.00 | 0.00 | 0.00 | 85 | 1015.1 |
| 20260505194444 | 52 | 250 | 5.0 | 13.0 | 0.00 | 0.00 | 0.00 | 85 | 1014.9 |
| 20260505194150 | 52 | 332 | 6.0 | 13.0 | 0.00 | 0.00 | 0.00 | 85 | 1015.0 |
| 20260505193146 | 52 | 344 | 7.0 | 14.0 | 0.00 | 0.00 | 0.00 | 84 | 1015.0 |
| 20260505192439 | 52 | 288 | 7.0 | 14.0 | 0.00 | 0.00 | 0.00 | 84 | 1015.0 |
| 20260505192145 | 52 | 334 | 7.0 | 17.0 | 0.00 | 0.00 | 0.00 | 84 | 1014.8 |
| 20260505191430 | 53 | 340 | 7.0 | 17.0 | 0.00 | 0.00 | 0.00 | 84 | 1014.9 |
| 20260505191143 | 52 | 298 | 7.0 | 14.0 | 0.00 | 0.00 | 0.00 | 84 | 1014.9 |
| 20260505190431 | 52 | 333 | 6.0 | 15.0 | 0.00 | 0.00 | 0.00 | 84 | 1014.9 |
| 20260505190141 | 52 | 282 | 6.0 | 15.0 | 0.00 | 0.00 | 0.00 | 84 | 1015.0 |
| 20260505185431 | 52 | 284 | 5.0 | 14.0 | 0.00 | 0.00 | 0.00 | 84 | 1015.0 |
| 20260505185140 | 52 | 259 | 4.0 | 10.0 | 0.00 | 0.00 | 0.00 | 84 | 1014.9 |
| 20260505184430 | 52 | 333 | 4.0 | 10.0 | 0.00 | 0.00 | 0.00 | 84 | 1014.9 |
| 20260505183428 | 52 | 282 | 4.0 | 10.0 | 0.00 | 0.00 | 0.00 | 84 | 1014.8 |
| 20260505183136 | 52 | 327 | 5.0 | 15.0 | 0.00 | 0.00 | 0.00 | 84 | 1014.6 |
| 20260505182134 | 52 | 269 | 6.0 | 14.0 | 0.00 | 0.00 | 0.00 | 83 | 1014.4 |
| 20260505181419 | 52 | 273 | 8.0 | 20.0 | 0.00 | 0.00 | 0.00 | 83 | 1014.3 |
| 20260505181130 | 52 | 317 | 12.0 | 23.0 | 0.00 | 0.00 | 0.00 | 83 | 1014.0 |
| 20260505180128 | 52 | 296 | 14.0 | 21.0 | 0.00 | 0.00 | 0.00 | 83 | 1013.9 |
| 20260505175413 | 52 | 316 | 13.0 | 21.0 | 0.00 | 0.00 | 0.00 | 83 | 1014.0 |
| 20260505175128 | 52 | 294 | 12.0 | 19.0 | 0.00 | 0.00 | 0.00 | 83 | 1014.3 |
| 20260505174416 | 52 | 285 | 11.0 | 19.0 | 0.00 | 0.00 | 0.00 | 83 | 1014.3 |
| 20260505174125 | 52 | 340 | 11.0 | 17.0 | 0.00 | 0.00 | 0.00 | 83 | 1014.4 |
| 20260505173414 | 52 | 281 | 10.0 | 17.0 | 0.00 | 0.00 | 0.00 | 84 | 1014.5 |
| 20260505173122 | 52 | 329 | 9.0 | 16.0 | 0.00 | 0.00 | 0.00 | 84 | 1014.6 |
| 20260505172414 | 53 | 355 | 7.0 | 16.0 | 0.00 | 0.00 | 0.00 | 84 | 1014.6 |
| 20260505172119 | 53 | 343 | 5.0 | 16.0 | 0.00 | 0.00 | 0.00 | 85 | 1014.7 |
| 20260505171419 | 53 | 281 | 5.0 | 15.0 | 0.00 | 0.00 | 0.00 | 84 | 1014.4 |
| 20260505171121 | 53 | 334 | 8.0 | 19.0 | 0.00 | 0.00 | 0.00 | 84 | 1013.9 |
| 20260505170413 | 53 | 16 | 10.0 | 24.0 | 0.00 | 0.00 | 0.00 | 84 | 1013.5 |
| 20260505170120 | 53 | 296 | 13.0 | 26.0 | 0.00 | 0.00 | 0.00 | 84 | 1013.0 |
| 20260505165414 | 53 | 281 | 15.0 | 26.0 | 0.00 | 0.00 | 0.00 | 83 | 1012.9 |
| 20260505164413 | 54 | 336 | 16.0 | 30.0 | 0.00 | 0.00 | 0.00 | 82 | 1012.6 |
| 20260505164113 | 54 | 318 | 16.0 | 30.0 | 0.00 | 0.00 | 0.00 | 82 | 1012.6 |
| 20260505163113 | 54 | 326 | 16.0 | 29.0 | 0.00 | 0.00 | 0.00 | 80 | 1012.5 |
| 20260505162111 | 55 | 284 | 15.0 | 25.0 | 0.00 | 0.00 | 0.00 | 78 | 1013.1 |
| 20260505161413 | 55 | 307 | 13.0 | 25.0 | 0.00 | 0.00 | 0.00 | 76 | 1013.4 |
| 20260505160411 | 55 | 327 | 12.0 | 24.0 | 0.00 | 0.00 | 0.00 | 74 | 1013.8 |
| 20260505160109 | 55 | 324 | 12.0 | 20.0 | 0.00 | 0.00 | 0.00 | 73 | 1014.0 |
| 20260505153105 | 57 | 289 | 11.0 | 19.0 | 0.00 | 0.00 | 0.00 | 68 | 1014.2 |
| 20260505152412 | 57 | 342 | 11.0 | 19.0 | 0.00 | 0.00 | 0.00 | 67 | 1014.0 |
| 20260505152103 | 57 | 304 | 9.0 | 17.0 | 0.00 | 0.00 | 0.00 | 65 | 1014.0 |
| 20260505151410 | 58 | 299 | 8.0 | 17.0 | 0.00 | 0.00 | 0.00 | 64 | 1013.9 |
| 20260505151057 | 58 | 295 | 10.0 | 19.0 | 0.00 | 0.00 | 0.00 | 63 | 1014.0 |
| 20260505150411 | 57 | 302 | 11.0 | 19.0 | 0.00 | 0.00 | 0.00 | 62 | 1014.2 |
| 20260505140405 | 59 | 254 | 9.0 | 20.0 | 0.00 | 0.00 | 0.00 | 54 | 1013.9 |
| 20260505125034 | 60 | 332 | 7.0 | 15.0 | 0.00 | 0.00 | 0.00 | 59 | 1013.6 |
| 20260505124402 | 60 | 19 | 10.0 | 21.0 | 0.00 | 0.00 | 0.00 | 58 | 1013.5 |
| 20260505124035 | 60 | 355 | 12.0 | 21.0 | 0.00 | 0.00 | 0.00 | 58 | 1013.6 |
| 20260505123034 | 60 | 313 | 10.0 | 21.0 | 0.00 | 0.00 | 0.00 | 58 | 1013.8 |
| 20260505122353 | 59 | 321 | 8.0 | 20.0 | 0.00 | 0.00 | 0.00 | 59 | 1013.9 |
| 20260505121352 | 59 | 332 | 11.0 | 20.0 | 0.00 | 0.00 | 0.00 | 59 | 1013.8 |
| 20260505121027 | 59 | 289 | 12.0 | 22.0 | 0.00 | 0.00 | 0.00 | 58 | 1013.8 |
| 20260505120354 | 59 | 341 | 12.0 | 22.0 | 0.00 | 0.00 | 0.00 | 56 | 1013.7 |
| 20260505120027 | 60 | 302 | 12.0 | 22.0 | 0.00 | 0.00 | 0.00 | 56 | 1013.8 |
| 20260505115355 | 60 | 355 | 13.0 | 24.0 | 0.00 | 0.00 | 0.00 | 56 | 1013.7 |
| 20260505115027 | 60 | 331 | 12.0 | 24.0 | 0.00 | 0.00 | 0.00 | 56 | 1013.6 |
| 20260505114355 | 60 | 295 | 11.0 | 21.0 | 0.00 | 0.00 | 0.00 | 55 | 1013.8 |
| 20260505114022 | 61 | 261 | 11.0 | 23.0 | 0.00 | 0.00 | 0.00 | 54 | 1013.6 |
| 20260505113353 | 61 | 350 | 10.0 | 22.0 | 0.00 | 0.00 | 0.00 | 55 | 1013.6 |
| 20260505113022 | 60 | 308 | 12.0 | 27.0 | 0.00 | 0.00 | 0.00 | 57 | 1013.6 |
| 20260505112353 | 60 | 274 | 12.0 | 27.0 | 0.00 | 0.00 | 0.00 | 56 | 1013.6 |
| 20260505112019 | 60 | 313 | 13.0 | 23.0 | 0.00 | 0.00 | 0.00 | 55 | 1013.6 |
| 20260505111353 | 60 | 237 | 15.0 | 25.0 | 0.00 | 0.00 | 0.00 | 56 | 1013.7 |
| 20260505111017 | 60 | 333 | 15.0 | 27.0 | 0.00 | 0.00 | 0.00 | 56 | 1013.6 |
| 20260505102010 | 59 | 302 | 15.0 | 25.0 | 0.00 | 0.00 | 0.00 | 58 | 1013.3 |
| 20260505100338 | 60 | 304 | 11.0 | 25.0 | 0.00 | 0.00 | 0.00 | 59 | 1013.3 |
| 20260505100004 | 60 | 272 | 12.0 | 24.0 | 0.00 | 0.00 | 0.00 | 59 | 1013.3 |
| 20260505095339 | 60 | 310 | 13.0 | 28.0 | 0.00 | 0.00 | 0.00 | 60 | 1013.3 |
| 20260505095003 | 60 | 279 | 15.0 | 28.0 | 0.00 | 0.00 | 0.00 | 59 | 1013.3 |
| 20260505094339 | 60 | 241 | 16.0 | 28.0 | 0.00 | 0.00 | 0.00 | 57 | 1013.3 |
| 20260505094000 | 60 | 323 | 15.0 | 28.0 | 0.00 | 0.00 | 0.00 | 54 | 1013.3 |
| 20260505093340 | 60 | 234 | 15.0 | 28.0 | 0.00 | 0.00 | 0.00 | 55 | 1013.2 |
| 20260505092958 | 60 | 309 | 15.0 | 28.0 | 0.00 | 0.00 | 0.00 | 53 | 1013.3 |
| 20260505092338 | 60 | 274 | 13.0 | 26.0 | 0.00 | 0.00 | 0.00 | 55 | 1013.4 |
| 20260505091957 | 60 | 249 | 15.0 | 26.0 | 0.00 | 0.00 | 0.00 | 55 | 1013.3 |
| 20260505091337 | 60 | 281 | 15.0 | 26.0 | 0.00 | 0.00 | 0.00 | 54 | 1013.5 |
| 20260505090955 | 59 | 163 | 15.0 | 28.0 | 0.00 | 0.00 | 0.00 | 53 | 1013.4 |
| 20260505090337 | 59 | 296 | 15.0 | 28.0 | 0.00 | 0.00 | 0.00 | 51 | 1013.7 |
| 20260505085951 | 59 | 291 | 14.0 | 27.0 | 0.00 | 0.00 | 0.00 | 53 | 1013.6 |
| 20260505085333 | 58 | 253 | 15.0 | 24.0 | 0.00 | 0.00 | 0.00 | 54 | 1013.7 |
| 20260505083331 | 58 | 279 | 13.0 | 24.0 | 0.00 | 0.00 | 0.00 | 56 | 1013.8 |
| 20260505082948 | 59 | 311 | 11.0 | 24.0 | 0.00 | 0.00 | 0.00 | 59 | 1013.6 |
| 20260505082327 | 59 | 314 | 13.0 | 22.0 | 0.00 | 0.00 | 0.00 | 61 | 1013.6 |
| 20260505081946 | 58 | 321 | 14.0 | 23.0 | 0.00 | 0.00 | 0.00 | 59 | 1013.8 |
| 20260505080943 | 58 | 259 | 10.0 | 24.0 | 0.00 | 0.00 | 0.00 | 60 | 1013.7 |
| 20260505080326 | 58 | 241 | 10.0 | 20.0 | 0.00 | 0.00 | 0.00 | 63 | 1013.6 |
| 20260505075943 | 57 | 294 | 10.0 | 20.0 | 0.00 | 0.00 | 0.00 | 64 | 1013.8 |
| 20260505074941 | 57 | 309 | 15.0 | 27.0 | 0.00 | 0.00 | 0.00 | 64 | 1013.7 |
| 20260505074326 | 58 | 299 | 15.0 | 27.0 | 0.00 | 0.00 | 0.00 | 64 | 1013.6 |
| 20260505073942 | 58 | 286 | 13.0 | 24.0 | 0.00 | 0.00 | 0.00 | 65 | 1013.6 |
| 20260505073327 | 57 | 317 | 12.0 | 22.0 | 0.00 | 0.00 | 0.00 | 64 | 1013.5 |
| 20260505072940 | 57 | 286 | 12.0 | 25.0 | 0.00 | 0.00 | 0.00 | 65 | 1013.4 |
| 20260505072327 | 57 | 246 | 12.0 | 25.0 | 0.00 | 0.00 | 0.00 | 66 | 1013.6 |
| 20260505071324 | 57 | 240 | 13.0 | 26.0 | 0.00 | 0.00 | 0.00 | 66 | 1013.5 |
| 20260505070934 | 56 | 322 | 10.0 | 24.0 | 0.00 | 0.00 | 0.00 | 66 | 1013.5 |
| 20260505065928 | 56 | 284 | 10.0 | 20.0 | 0.00 | 0.00 | 0.00 | 71 | 1013.5 |
| 20260505065327 | 56 | 338 | 11.0 | 22.0 | 0.00 | 0.00 | 0.00 | 72 | 1013.4 |
| 20260505064929 | 56 | 275 | 11.0 | 22.0 | 0.00 | 0.00 | 0.00 | 74 | 1013.3 |
| 20260505063928 | 55 | 263 | 13.0 | 26.0 | 0.00 | 0.00 | 0.00 | 73 | 1013.3 |
| 20260505063322 | 55 | 298 | 15.0 | 28.0 | 0.00 | 0.00 | 0.00 | 73 | 1013.2 |
| 20260505062927 | 55 | 335 | 15.0 | 28.0 | 0.00 | 0.00 | 0.00 | 73 | 1013.0 |
| 20260505062322 | 55 | 274 | 14.0 | 25.0 | 0.00 | 0.00 | 0.00 | 73 | 1012.8 |
| 20260505061922 | 55 | 305 | 14.0 | 28.0 | 0.00 | 0.00 | 0.00 | 72 | 1012.6 |
| 20260505061320 | 55 | 219 | 16.0 | 28.0 | 0.00 | 0.00 | 0.00 | 72 | 1012.8 |
| 20260505060920 | 54 | 252 | 17.0 | 32.0 | 0.00 | 0.00 | 0.00 | 72 | 1012.6 |
| 20260505060323 | 54 | 288 | 17.0 | 32.0 | 0.00 | 0.00 | 0.00 | 72 | 1012.6 |
| 20260505055924 | 55 | 292 | 17.0 | 28.0 | 0.00 | 0.00 | 0.00 | 74 | 1012.8 |
| 20260505054322 | 54 | 257 | 14.0 | 27.0 | 0.00 | 0.00 | 0.00 | 76 | 1012.9 |
| 20260505053914 | 54 | 305 | 14.0 | 27.0 | 0.00 | 0.00 | 0.00 | 76 | 1012.9 |
| 20260505053318 | 53 | 268 | 13.0 | 23.0 | 0.00 | 0.00 | 0.00 | 77 | 1012.9 |
| 20260505052910 | 54 | 300 | 14.0 | 23.0 | 0.00 | 0.00 | 0.00 | 78 | 1013.0 |
| 20260505052317 | 54 | 243 | 14.0 | 22.0 | 0.00 | 0.00 | 0.00 | 78 | 1013.1 |
| 20260505050319 | 53 | 288 | 10.0 | 20.0 | 0.00 | 0.00 | 0.00 | 80 | 1012.9 |
| 20260505041311 | 52 | 0.0 | 0.0 | 0.00 | 0.00 | 0.00 | 82 | 1012.6 | |
| 20260505040858 | 52 | 0.0 | 0.0 | 0.00 | 0.00 | 0.00 | 82 | 1012.5 | |
| 20260505040307 | 51 | 0.0 | 0.0 | 0.00 | 0.00 | 0.00 | 82 | 1012.5 | |
| 20260505035857 | 51 | 0.0 | 0.0 | 0.00 | 0.00 | 0.00 | 83 | 1012.5 | |
| 20260505035259 | 51 | 0.0 | 0.0 | 0.00 | 0.00 | 0.00 | 83 | 1012.5 | |
| 20260505034851 | 51 | 0.0 | 0.0 | 0.00 | 0.00 | 0.00 | 83 | 1012.4 | |
| 20260505034257 | 50 | 0.0 | 0.0 | 0.00 | 0.00 | 0.00 | 83 | 1012.3 | |
| 20260505033851 | 50 | 0.0 | 0.0 | 0.00 | 0.00 | 0.00 | 83 | 1012.2 | |
| 20260505033238 | 50 | 0.0 | 0.0 | 0.00 | 0.00 | 0.00 | 83 | 1012.2 | |
| 20260505032226 | 50 | 0.0 | 0.0 | 0.00 | 0.00 | 0.00 | 84 | 1012.2 | |
| 20260505030836 | 50 | 0.0 | 0.0 | 0.00 | 0.00 | 0.00 | 85 | 1012.1 | |
| 20260505030142 | 50 | 0.0 | 0.0 | 0.00 | 0.00 | 0.00 | 85 | 1012.2 | |
| 20260505025839 | 50 | 0.0 | 0.0 | 0.00 | 0.00 | 0.00 | 85 | 1012.2 | |
| 20260505025125 | 50 | 323 | 5.0 | 3.0 | 0.00 | 0.00 | 0.00 | 85 | 1012.2 |
| 20260505024834 | 50 | 323 | 5.0 | 11.0 | 0.00 | 0.00 | 0.00 | 85 | 1012.2 |
| 20260505024106 | 50 | 323 | 5.0 | 12.0 | 0.00 | 0.00 | 0.00 | 85 | 1012.2 |
| 20260505023833 | 50 | 317 | 5.0 | 14.0 | 0.00 | 0.00 | 0.00 | 86 | 1012.3 |
| 20260505022832 | 50 | 257 | 7.0 | 15.0 | 0.00 | 0.00 | 0.00 | 86 | 1012.3 |
| 20260505022055 | 50 | 266 | 6.0 | 15.0 | 0.00 | 0.00 | 0.00 | 86 | 1012.4 |
| 20260505020055 | 50 | 248 | 5.0 | 12.0 | 0.00 | 0.00 | 0.00 | 87 | 1012.4 |
| 20260505015825 | 50 | 295 | 5.0 | 9.0 | 0.00 | 0.00 | 0.00 | 87 | 1012.4 |
| 20260505015052 | 50 | 295 | 5.0 | 11.0 | 0.00 | 0.00 | 0.00 | 87 | 1012.4 |